Location: Bay Shore Mobile Home Park
(38.5762°N, 75.0841°W)
Time: 08:17:37
(UTC+00:00)

IRAS Rocket - Pass Details

Date: 15 November 2025
Orbit: 845 x 876 km, 100.1° (Epoch: 04 December)

Event Time Altitude Azimuth Distance (km) Brightness Sun altitude
Rises 23:06:17 0° 152° (SSE) 3,442 7.2 -15.6°
Reaches altitude 10° 23:08:42 10° 148° (SSE) 2,504 6.5 -16.1°
Maximum altitude 23:14:08 58° 71° (ENE) 998 4.2 -17.1°
Drops below altitude 10° 23:19:33 10° 353° (N) 2,499 6.6 -18.1°
Sets 23:21:57 0° 350° (N) 3,434 7.4 -18.6°
